TimeMDT,TemperatureF,Dew PointF,Humidity,Sea Level PressureIn,VisibilityMPH,Wind Direction,Wind SpeedMPH,Gust SpeedMPH,PrecipitationIn,Events,Conditions,WindDirDegrees,DateUTC
12:15 AM,57.2,28.4,33,30.13,10.0,SW,8.1,-,N/A,,Clear,230,2012-04-23 06:15:00
12:35 AM,60.8,28.4,29,30.12,10.0,SW,10.4,-,N/A,,Clear,230,2012-04-23 06:35:00
12:55 AM,59.0,28.4,31,30.12,10.0,WSW,6.9,-,N/A,,Clear,240,2012-04-23 06:55:00
1:15 AM,59.0,28.4,31,30.12,10.0,West,5.8,-,N/A,,Clear,260,2012-04-23 07:15:00
1:35 AM,59.0,28.4,31,30.12,10.0,WSW,6.9,-,N/A,,Clear,240,2012-04-23 07:35:00
1:55 AM,57.2,28.4,33,30.11,10.0,WSW,10.4,-,N/A,,Clear,250,2012-04-23 07:55:00
2:15 AM,57.2,30.2,36,30.11,10.0,WSW,8.1,-,N/A,,Clear,240,2012-04-23 08:15:00
2:35 AM,57.2,28.4,33,30.11,10.0,WSW,8.1,-,N/A,,Clear,240,2012-04-23 08:35:00
2:55 AM,57.2,30.2,36,30.11,10.0,WSW,10.4,-,N/A,,Clear,240,2012-04-23 08:55:00
3:15 AM,53.6,28.4,38,30.11,10.0,South,9.2,-,N/A,,Clear,170,2012-04-23 09:15:00
3:35 AM,55.4,28.4,36,30.11,10.0,SSW,8.1,-,N/A,,Clear,200,2012-04-23 09:35:00
3:55 AM,53.6,28.4,38,30.11,10.0,SW,6.9,-,N/A,,Clear,220,2012-04-23 09:55:00
4:15 AM,55.4,30.2,38,30.11,10.0,SSW,5.8,-,N/A,,Clear,200,2012-04-23 10:15:00
4:35 AM,51.8,28.4,41,30.10,10.0,WSW,4.6,-,N/A,,Clear,240,2012-04-23 10:35:00
4:55 AM,50.0,26.6,40,30.11,10.0,Calm,Calm,-,N/A,,Clear,0,2012-04-23 10:55:00
5:15 AM,48.2,28.4,46,30.11,10.0,Calm,Calm,-,N/A,,Clear,0,2012-04-23 11:15:00
5:35 AM,48.2,28.4,46,30.11,10.0,NW,3.5,-,N/A,,Clear,320,2012-04-23 11:35:00
5:55 AM,50.0,28.4,43,30.11,10.0,South,5.8,-,N/A,,Clear,180,2012-04-23 11:55:00
6:15 AM,44.6,28.4,53,30.11,10.0,SSW,4.6,-,N/A,,Clear,200,2012-04-23 12:15:00
6:35 AM,53.6,28.4,38,30.11,10.0,SSE,8.1,-,N/A,,Clear,150,2012-04-23 12:35:00
6:55 AM,51.8,32.0,47,30.11,10.0,SSW,10.4,-,N/A,,Clear,210,2012-04-23 12:55:00
7:15 AM,53.6,30.2,41,30.11,10.0,WSW,4.6,-,N/A,,Clear,240,2012-04-23 13:15:00
7:35 AM,57.2,32.0,38,30.11,10.0,SSW,4.6,-,N/A,,Clear,210,2012-04-23 13:35:00
7:55 AM,59.0,33.8,39,30.11,10.0,South,8.1,-,N/A,,Clear,180,2012-04-23 13:55:00
8:15 AM,62.6,33.8,34,30.10,10.0,WSW,5.8,-,N/A,,Clear,240,2012-04-23 14:15:00
8:35 AM,60.8,33.8,36,30.10,10.0,Calm,Calm,-,N/A,,Clear,0,2012-04-23 14:35:00
8:56 AM,66.2,33.8,30,30.09,10.0,SSW,9.2,-,N/A,,Clear,210,2012-04-23 14:56:00
9:15 AM,71.6,32.0,23,30.09,10.0,SSW,16.1,-,N/A,,Clear,210,2012-04-23 15:15:00
9:35 AM,71.6,32.0,23,30.09,10.0,SW,12.7,20.7,N/A,,Clear,220,2012-04-23 15:35:00
9:55 AM,73.4,32.0,22,30.08,10.0,SW,11.5,-,N/A,,Clear,230,2012-04-23 15:55:00
10:15 AM,73.4,33.8,23,30.08,10.0,WSW,5.8,-,N/A,,Clear,250,2012-04-23 16:15:00
10:35 AM,75.2,33.8,22,30.08,10.0,WSW,8.1,-,N/A,,Clear,240,2012-04-23 16:35:00
10:55 AM,75.2,32.0,21,30.08,10.0,SSW,5.8,-,N/A,,Clear,200,2012-04-23 16:55:00
11:15 AM,77.0,30.2,18,30.07,10.0,NW,4.6,-,N/A,,Clear,310,2012-04-23 17:15:00
11:35 AM,78.8,32.0,18,30.07,10.0,North,8.1,-,N/A,,Clear,350,2012-04-23 17:35:00
11:55 AM,78.8,33.8,20,30.06,10.0,NE,12.7,-,N/A,,Clear,40,2012-04-23 17:55:00
12:15 PM,78.8,33.8,20,30.06,8.0,North,9.2,-,N/A,,Partly Cloudy,10,2012-04-23 18:15:00
12:35 PM,80.6,30.2,16,30.04,10.0,NNE,6.9,-,N/A,,Clear,30,2012-04-23 18:35:00
12:55 PM,80.6,30.2,16,30.03,10.0,NNE,10.4,-,N/A,,Clear,30,2012-04-23 18:55:00
1:15 PM,80.6,28.4,15,30.03,10.0,North,5.8,-,N/A,,Clear,350,2012-04-23 19:15:00
1:35 PM,80.6,28.4,15,30.02,10.0,SW,8.1,16.1,N/A,,Clear,230,2012-04-23 19:35:00
1:55 PM,82.4,26.6,13,30.01,10.0,SW,12.7,23.0,N/A,,Clear,230,2012-04-23 19:55:00
2:15 PM,82.4,26.6,13,30.01,10.0,NW,10.4,17.3,N/A,,Clear,310,2012-04-23 20:15:00
2:35 PM,84.2,26.6,12,30.00,10.0,WNW,13.8,24.2,N/A,,Clear,300,2012-04-23 20:35:00
2:55 PM,82.4,26.6,13,30.00,10.0,North,12.7,18.4,N/A,,Clear,350,2012-04-23 20:55:00
3:15 PM,80.6,26.6,14,30.00,10.0,North,10.4,-,N/A,,Partly Cloudy,350,2012-04-23 21:15:00
3:35 PM,80.6,26.6,14,29.99,10.0,NNW,9.2,-,N/A,,Partly Cloudy,330,2012-04-23 21:35:00
3:55 PM,80.6,28.4,15,29.98,10.0,NNW,4.6,-,N/A,,Clear,330,2012-04-23 21:55:00
4:15 PM,82.4,28.4,14,29.97,10.0,NNE,9.2,-,N/A,,Clear,20,2012-04-23 22:15:00
4:35 PM,80.6,26.6,14,29.97,10.0,NW,4.6,-,N/A,,Clear,310,2012-04-23 22:35:00
4:55 PM,82.4,26.6,13,29.95,10.0,Calm,Calm,-,N/A,,Clear,0,2012-04-23 22:55:00
5:15 PM,80.6,26.6,14,29.95,10.0,NNE,6.9,-,N/A,,Clear,20,2012-04-23 23:15:00
5:35 PM,80.6,26.6,14,29.94,10.0,ESE,9.2,-,N/A,,Clear,120,2012-04-23 23:35:00
5:55 PM,80.6,26.6,14,29.94,10.0,ESE,4.6,-,N/A,,Clear,110,2012-04-23 23:55:00
6:15 PM,78.8,26.6,15,29.94,10.0,East,4.6,-,N/A,,Clear,100,2012-04-24 00:15:00
6:35 PM,78.8,28.4,16,29.94,10.0,ESE,3.5,-,N/A,,Clear,110,2012-04-24 00:35:00
6:55 PM,80.6,26.6,14,29.94,10.0,ENE,8.1,-,N/A,,Clear,70,2012-04-24 00:55:00
7:15 PM,78.8,26.6,15,29.94,10.0,ENE,3.5,-,N/A,,Clear,70,2012-04-24 01:15:00
7:35 PM,78.8,26.6,15,29.94,10.0,East,4.6,-,N/A,,Clear,90,2012-04-24 01:35:00
7:55 PM,73.4,30.2,20,29.95,10.0,NE,4.6,-,N/A,,Clear,40,2012-04-24 01:55:00
8:15 PM,71.6,32.0,23,29.96,10.0,NNW,8.1,-,N/A,,Clear,330,2012-04-24 02:15:00
8:35 PM,69.8,35.6,28,29.97,10.0,NNE,19.6,26.5,N/A,,Clear,20,2012-04-24 02:35:00
8:55 PM,66.2,37.4,35,29.98,10.0,North,12.7,-,N/A,,Clear,10,2012-04-24 02:55:00
9:15 PM,64.4,37.4,37,30.00,10.0,NW,8.1,-,N/A,,Clear,320,2012-04-24 03:15:00
9:35 PM,64.4,37.4,37,29.99,10.0,NNW,8.1,-,N/A,,Clear,330,2012-04-24 03:35:00
9:55 PM,64.4,37.4,37,29.99,10.0,NNW,4.6,-,N/A,,Clear,330,2012-04-24 03:55:00
10:15 PM,64.4,37.4,37,29.99,10.0,NW,8.1,-,N/A,,Clear,310,2012-04-24 04:15:00
10:35 PM,64.4,37.4,37,30.00,10.0,NW,8.1,-,N/A,,Clear,320,2012-04-24 04:35:00
10:55 PM,62.6,37.4,39,30.01,10.0,WNW,3.5,-,N/A,,Clear,300,2012-04-24 04:55:00
11:15 PM,62.6,37.4,39,30.01,10.0,West,5.8,-,N/A,,Mostly Cloudy,270,2012-04-24 05:15:00
11:35 PM,66.2,35.6,32,30.00,10.0,WNW,8.1,-,N/A,,Mostly Cloudy,290,2012-04-24 05:35:00
11:55 PM,66.2,35.6,32,30.00,10.0,West,13.8,-,N/A,,Clear,260,2012-04-24 05:55:00